TimeCST,TemperatureF,Dew PointF,Humidity,Sea Level PressureIn,VisibilityMPH,Wind Direction,Wind SpeedMPH,Gust SpeedMPH,PrecipitationIn,Events,Conditions,WindDirDegrees,DateUTC
12:15 AM,15.6,1.9,55,30.13,10.0,South,11.5,-,N/A,,Clear,190,2014-03-04 06:15:00
12:35 AM,15.4,1.9,55,30.12,10.0,South,12.7,-,N/A,,Clear,190,2014-03-04 06:35:00
12:55 AM,15.4,1.4,54,30.12,10.0,SSW,11.5,17.3,N/A,,Clear,200,2014-03-04 06:55:00
1:15 AM,15.4,0.5,52,30.13,10.0,SSW,8.1,-,N/A,,Clear,200,2014-03-04 07:15:00
1:35 AM,15.4,-0.6,49,30.12,10.0,South,9.2,-,N/A,,Clear,190,2014-03-04 07:35:00
1:55 AM,15.1,-0.8,50,30.12,10.0,South,10.4,-,N/A,,Clear,190,2014-03-04 07:55:00
2:15 AM,14.9,-1.3,49,30.11,10.0,South,10.4,-,N/A,,Clear,190,2014-03-04 08:15:00
2:35 AM,14.9,-0.9,50,30.10,10.0,South,10.4,-,N/A,,Clear,190,2014-03-04 08:35:00
2:55 AM,14.7,-0.6,51,30.09,10.0,South,9.2,-,N/A,,Clear,190,2014-03-04 08:55:00
3:15 AM,14.5,-0.6,51,30.09,10.0,South,9.2,-,N/A,,Clear,190,2014-03-04 09:15:00
3:35 AM,14.7,-0.6,51,30.09,10.0,SSW,6.9,-,N/A,,Clear,200,2014-03-04 09:35:00
3:55 AM,14.5,-0.2,52,30.08,10.0,South,9.2,-,N/A,,Clear,190,2014-03-04 09:55:00
4:15 AM,14.2,-0.2,53,30.08,10.0,SSW,8.1,-,N/A,,Clear,200,2014-03-04 10:15:00
4:35 AM,14.5,-0.2,52,30.07,10.0,South,8.1,-,N/A,,Clear,190,2014-03-04 10:35:00
4:55 AM,14.2,-0.0,53,30.07,10.0,South,8.1,-,N/A,,Clear,180,2014-03-04 10:55:00
5:15 AM,14.0,0.1,54,30.06,10.0,South,9.2,-,N/A,,Clear,180,2014-03-04 11:15:00
5:35 AM,14.0,0.5,55,30.06,10.0,South,8.1,-,N/A,,Clear,180,2014-03-04 11:35:00
5:55 AM,14.2,1.2,56,30.05,10.0,South,6.9,-,N/A,,Clear,190,2014-03-04 11:55:00
6:15 AM,14.0,1.8,58,30.05,10.0,South,6.9,-,N/A,,Clear,190,2014-03-04 12:15:00
6:35 AM,14.0,2.3,60,30.05,10.0,South,8.1,-,N/A,,Clear,190,2014-03-04 12:35:00
6:55 AM,13.8,2.7,61,30.05,10.0,South,5.8,-,N/A,,Clear,180,2014-03-04 12:55:00
7:15 AM,13.6,3.0,63,30.05,10.0,South,5.8,-,N/A,,Clear,170,2014-03-04 13:15:00
7:35 AM,14.7,3.2,60,30.05,10.0,South,3.5,-,N/A,,Clear,180,2014-03-04 13:35:00
7:55 AM,16.2,3.7,58,30.05,10.0,South,4.6,-,N/A,,Clear,180,2014-03-04 13:55:00
8:15 AM,17.2,3.6,55,30.05,10.0,South,6.9,-,N/A,,Clear,190,2014-03-04 14:15:00
8:35 AM,18.3,4.1,54,30.04,10.0,South,9.2,-,N/A,,Clear,190,2014-03-04 14:35:00
8:55 AM,18.5,4.3,54,30.04,10.0,South,6.9,-,N/A,,Clear,190,2014-03-04 14:55:00
9:15 AM,20.1,4.5,51,30.04,10.0,SSW,8.1,-,N/A,,Clear,200,2014-03-04 15:15:00
9:35 AM,21.2,5.4,51,30.04,10.0,SW,4.6,-,N/A,,Clear,220,2014-03-04 15:35:00
9:55 AM,22.8,6.8,50,30.04,10.0,SW,4.6,-,N/A,,Clear,230,2014-03-04 15:55:00
10:15 AM,24.3,8.1,50,30.04,10.0,SW,3.5,-,N/A,,Clear,230,2014-03-04 16:15:00
10:35 AM,25.9,9.3,50,30.03,10.0,South,4.6,-,N/A,,Clear,170,2014-03-04 16:35:00
10:55 AM,27.9,10.6,48,30.02,10.0,South,4.6,-,N/A,,Clear,170,2014-03-04 16:55:00
11:15 AM,29.3,12.0,49,30.00,10.0,SSE,8.1,-,N/A,,Clear,150,2014-03-04 17:15:00
11:30 AM,30.2,13.1,49,30.01,10.0,SSE,8.1,-,0.03,,Clear,160,2014-03-04 17:30:00
11:55 AM,31.8,14.2,48,30.02,10.0,SSE,9.2,-,0.03,,Clear,150,2014-03-04 17:55:00
12:15 PM,33.6,15.8,48,30.00,10.0,SSE,13.8,-,N/A,,Clear,150,2014-03-04 18:15:00
12:35 PM,33.3,15.8,49,30.00,10.0,SSE,12.7,-,N/A,,Scattered Clouds,160,2014-03-04 18:35:00
12:55 PM,34.5,17.4,50,29.98,10.0,South,10.4,17.3,N/A,,Scattered Clouds,180,2014-03-04 18:55:00
1:15 PM,35.4,17.8,49,29.98,10.0,South,10.4,-,N/A,,Clear,170,2014-03-04 19:15:00
1:35 PM,37.8,19.0,47,29.97,10.0,SSE,9.2,-,N/A,,Clear,160,2014-03-04 19:35:00
1:55 PM,37.9,19.8,48,29.96,10.0,SSE,8.1,-,N/A,,Clear,160,2014-03-04 19:55:00
2:15 PM,40.8,21.0,45,29.95,10.0,South,8.1,-,N/A,,Clear,170,2014-03-04 20:15:00
2:35 PM,41.5,21.4,45,29.93,10.0,SSE,10.4,-,N/A,,Clear,160,2014-03-04 20:35:00
2:55 PM,42.8,22.1,44,29.93,10.0,SSE,10.4,16.1,N/A,,Clear,160,2014-03-04 20:55:00
3:15 PM,43.7,23.2,44,29.93,10.0,SSE,13.8,17.3,N/A,,Clear,160,2014-03-04 21:15:00
3:35 PM,43.9,23.5,45,29.91,10.0,SSE,13.8,-,N/A,,Clear,160,2014-03-04 21:35:00
3:55 PM,44.2,23.7,44,29.91,10.0,SSE,13.8,17.3,N/A,,Scattered Clouds,150,2014-03-04 21:55:00
4:15 PM,44.6,23.9,44,29.90,10.0,SSE,12.7,-,N/A,,Clear,150,2014-03-04 22:15:00
4:35 PM,45.0,24.4,45,29.91,10.0,South,11.5,18.4,N/A,,Clear,170,2014-03-04 22:35:00
4:55 PM,44.6,24.6,45,29.91,10.0,South,10.4,16.1,N/A,,Clear,170,2014-03-04 22:55:00
5:15 PM,44.6,24.8,46,29.91,10.0,South,8.1,-,N/A,,Clear,180,2014-03-04 23:15:00
5:35 PM,43.7,25.3,48,29.91,10.0,SSE,8.1,-,N/A,,Clear,160,2014-03-04 23:35:00
5:50 PM,43.7,25.3,48,29.91,10.0,SSE,9.2,-,N/A,,Scattered Clouds,150,2014-03-04 23:50:00
6:15 PM,42.3,25.0,50,29.91,10.0,South,6.9,-,N/A,,Clear,180,2014-03-05 00:15:00
6:35 PM,41.0,24.8,53,29.92,10.0,South,8.1,-,N/A,,Clear,190,2014-03-05 00:35:00
6:55 PM,38.3,24.4,57,29.91,10.0,South,9.2,-,N/A,,Clear,170,2014-03-05 00:55:00
7:15 PM,37.9,24.8,59,29.91,10.0,South,5.8,-,N/A,,Clear,180,2014-03-05 01:15:00
7:35 PM,37.8,24.6,59,29.93,10.0,South,4.6,-,N/A,,Clear,180,2014-03-05 01:35:00
7:55 PM,37.6,24.4,59,29.94,10.0,NNE,5.8,-,N/A,,Scattered Clouds,30,2014-03-05 01:55:00
8:15 PM,34.2,24.8,69,29.96,10.0,North,5.8,-,N/A,,Mostly Cloudy,10,2014-03-05 02:15:00
8:35 PM,34.2,24.8,69,29.96,10.0,NE,4.6,-,N/A,,Mostly Cloudy,50,2014-03-05 02:35:00
8:55 PM,32.9,25.3,74,29.97,10.0,Calm,Calm,-,N/A,,Scattered Clouds,0,2014-03-05 02:55:00
9:15 PM,33.3,25.5,73,29.98,10.0,Calm,Calm,-,N/A,,Mostly Cloudy,0,2014-03-05 03:15:00
9:35 PM,32.9,25.3,74,29.99,10.0,ESE,3.5,-,N/A,,Scattered Clouds,110,2014-03-05 03:35:00
9:55 PM,32.4,25.5,76,30.00,10.0,Calm,Calm,-,N/A,,Scattered Clouds,0,2014-03-05 03:55:00
10:15 PM,32.2,25.7,77,30.01,10.0,Calm,Calm,-,N/A,,Mostly Cloudy,0,2014-03-05 04:15:00
10:35 PM,32.9,25.7,75,30.01,10.0,East,3.5,-,N/A,,Overcast,100,2014-03-05 04:35:00
10:55 PM,32.2,25.5,76,30.02,10.0,NE,3.5,-,N/A,,Overcast,50,2014-03-05 04:55:00
11:15 PM,32.9,25.3,74,30.02,10.0,Calm,Calm,-,N/A,,Overcast,0,2014-03-05 05:15:00
11:35 PM,32.5,25.5,75,30.03,10.0,Calm,Calm,-,N/A,,Overcast,0,2014-03-05 05:35:00
11:55 PM,32.2,25.5,76,30.04,10.0,Calm,Calm,-,N/A,,Overcast,0,2014-03-05 05:55:00